Wind_Speed
62 60 56 54 52 52 52 53 54 54 55 55 56 55 54 52 51 49 48 48 49 48 48 49 48 48 47 47 49 51 54 58 60 56 50 47 45 44 46 47 47 47 47 47 47 48 48 48 49 49 49 49 49 49 49 48 48 48 49 49 49 50 51 51 51 50 49 48 47 47 47 47 46 46 46 45 44 45 46 48 47 46 46 45 44 43
63 60 57 57 57 57 56 55 55 55 54 54 54 54 54 53 52 49 48 47 48 48 49 50 50 49 48 47 48 49 52 55 59 60 58 53 47 43 39 35 35 36 36 38 41 44 46 48 49 50 50 51 51 50 50 49 49 50 50 50 51 51 52 52 52 52 51 50 50 49 49 49 48 48 48 48 48 48 48 49 48 47 45 44 42 41
62 60 60 61 61 60 58 56 55 54 54 53 53 53 54 55 53 51 49 48 48 48 49 50 50 49 48 48 48 48 50 51 52 56 59 57 51 46 38 29 29 32 31 32 36 40 43 44 47 49 50 51 51 51 51 51 50 50 51 51 52 52 52 52 52 52 52 51 51 51 51 50 50 49 49 49 49 49 49 49 49 46 42 41 40 39
60 61 63 64 64 62 59 57 56 54 53 52 52 52 54 55 54 52 50 49 48 48 49 49 49 49 48 48 48 47 47 47 48 50 53 54 52 50 44 36 34 34 34 37 41 43 44 44 44 45 46 47 49 50 51 51 51 51 52 52 52 52 52 52 52 52 52 52 52 52 52 52 52 51 51 50 50 50 49 48 46 42 40 40 40 40
59 63 66 67 66 64 62 60 57 55 53 52 52 52 53 55 54 53 52 51 49 48 48 48 48 48 48 48 48 46 45 44 45 46 47 49 50 52 50 46 45 41 35 38 46 48 48 46 43 42 44 45 46 48 50 50 51 52 52 53 53 52 53 53 53 53 53 53 53 54 53 53 53 52 51 51 50 49 48 45 42 41 41 42 43 44
59 62 66 67 67 66 64 62 59 57 55 54 53 53 54 55 54 53 53 52 51 49 48 47 47 46 47 47 47 45 44 43 43 43 45 47 47 49 52 52 51 48 38 29 34 42 48 49 46 45 46 47 47 47 48 49 50 50 51 52 52 53 54 54 54 54 54 54 54 54 54 53 53 53 52 51 50 48 47 45 44 44 46 47 48 50
59 61 63 65 67 67 66 64 62 59 57 55 54 55 56 54 53 52 53 53 53 51 49 47 45 45 45 45 45 43 42 41 42 43 44 46 46 48 52 52 52 53 46 32 24 31 42 47 46 46 46 47 47 46 47 48 48 48 49 50 51 52 54 55 55 55 55 55 55 54 54 53 53 52 52 51 50 49 48 48 48 48 49 51 53 54
57 60 62 63 65 67 66 65 63 62 59 57 57 58 57 55 53 52 53 53 53 52 50 47 44 43 43 43 43 42 41 41 42 43 45 45 46 48 50 50 53 57 56 47 36 32 36 40 41 40 42 44 47 47 47 47 47 47 48 50 52 53 54 55 55 55 56 56 55 55 54 54 53 53 52 52 51 51 51 51 51 50 51 53 54 55
56 58 59 61 63 65 66 66 66 65 62 61 62 61 59 57 54 53 52 52 53 52 50 47 45 43 42 42 42 41 41 41 43 45 46 46 46 47 49 51 54 57 60 58 52 43 35 35 38 39 39 42 46 48 49 49 48 49 50 51 53 54 54 55 55 55 56 56 55 55 54 54 54 53 53 53 53 53 53 52 52 52 52 53 53 54
57 58 60 61 61 63 66 69 69 67 66 66 66 63 61 58 56 53 51 50 50 49 48 48 47 44 42 41 41 41 41 43 47 48 48 47 46 45 48 52 54 57 61 62 60 55 42 34 35 36 36 39 43 45 47 48 48 49 50 52 53 53 54 54 55 55 54 54 54 54 54 54 54 54 54 54 54 54 54 54 54 53 53 53 54 54
59 60 60 60 60 63 66 69 70 70 69 69 68 64 61 59 56 53 51 49 47 46 47 49 48 46 43 41 40 41 44 48 50 50 49 47 46 46 48 51 54 58 62 62 63 64 54 39 32 32 33 35 37 40 42 44 46 48 50 52 53 53 54 54 55 55 55 54 54 54 54 55 54 54 54 54 55 55 55 55 55 55 55 55 55 55
59 58 58 59 59 61 64 66 69 70 70 70 68 64 62 59 56 53 50 47 45 43 46 49 48 47 44 42 41 42 46 50 50 50 50 49 49 50 50 50 53 58 61 62 64 66 63 50 37 32 33 34 35 36 38 41 44 48 50 51 52 53 54 55 55 55 56 56 56 55 55 55 54 54 54 54 55 55 56 56 56 55 56 56 56 56
57 56 56 57 59 60 61 62 65 67 69 69 68 64 61 58 54 51 48 45 43 43 46 47 46 46 44 43 43 44 46 49 50 51 52 51 49 50 50 49 51 55 58 60 63 66 67 62 52 41 37 40 40 38 40 44 47 50 51 52 53 54 53 53 54 54 55 55 55 54 53 53 53 53 53 53 54 55 55 55 56 56 56 56 56 56
55 54 54 55 57 58 58 58 60 62 64 66 66 65 62 58 53 50 47 44 42 43 45 46 45 44 45 44 44 45 46 48 50 51 51 50 49 50 50 48 48 50 53 56 58 62 63 64 63 56 49 50 51 49 51 54 54 54 54 54 54 54 52 51 52 52 52 52 52 52 52 52 52 52 52 52 52 53 53 54 54 55 55 56 56 57
54 52 51 52 54 55 55 56 57 60 62 64 66 66 64 59 55 52 49 46 44 44 46 45 43 43 45 46 47 46 47 48 49 49 50 50 50 50 48 47 45 46 49 52 54 56 57 58 62 64 61 60 60 60 60 59 57 55 55 54 53 51 50 49 49 48 48 48 49 49 49 49 50 50 49 49 50 50 50 51 52 52 53 53 53 53
54 52 51 52 53 53 53 54 57 60 62 64 65 66 65 62 58 55 52 50 48 47 47 45 42 43 46 48 49 49 48 48 49 49 50 50 49 49 47 44 41 40 43 47 50 52 52 54 56 59 61 61 60 59 57 55 54 53 53 51 50 47 46 45 44 44 43 43 43 43 43 44 45 45 46 46 46 47 47 47 48 48 49 48 48 48
54 53 54 54 53 53 52 53 54 56 58 60 61 61 62 62 60 57 54 52 50 49 47 45 42 43 47 50 51 51 49 49 48 48 49 49 48 47 44 38 34 34 38 43 48 52 53 53 54 54 55 54 54 53 52 52 52 51 50 48 45 43 42 42 41 40 40 39 39 39 39 41 41 42 42 43 43 44 44 44 44 45 46 46 46 46
54 54 54 55 55 54 53 53 54 55 56 56 57 57 59 61 61 59 57 54 51 49 48 45 42 43 47 50 52 51 49 48 48 47 48 47 45 44 41 38 39 41 42 42 46 53 56 55 54 53 52 50 50 50 50 50 50 49 47 45 43 41 40 39 39 38 37 36 37 37 38 39 39 40 40 41 41 42 42 42 43 43 44 45 44 44
55 55 55 56 56 56 55 54 53 52 53 54 56 57 58 59 59 58 57 55 52 51 49 47 44 44 47 50 51 50 48 48 47 47 47 45 44 45 45 47 50 52 51 49 48 49 53 54 53 52 50 49 49 49 49 49 48 47 45 43 41 40 39 38 37 36 35 35 35 36 37 38 38 38 39 39 40 40 40 40 41 42 42 42 42 42
57 56 55 56 57 57 55 53 51 50 50 51 53 55 56 57 57 58 58 57 56 54 52 50 46 45 47 49 50 49 48 48 47 46 46 45 46 49 50 50 53 53 53 53 52 49 47 48 49 50 49 50 49 49 48 47 46 45 44 42 40 39 39 38 37 36 36 36 36 36 37 37 37 38 38 39 39 39 39 39 40 40 40 41 41 42
57 56 55 55 56 54 52 49 48 49 49 49 50 50 52 53 54 57 59 59 58 57 55 52 48 47 48 49 49 49 48 47 46 45 45 46 48 49 49 50 51 52 53 53 53 51 47 44 46 48 48 49 48 47 46 45 44 42 41 39 39 39 38 38 37 36 36 36 36 36 37 37 37 38 38 39 39 39 39 39 40 40 41 42 42 43
55 54 54 54 53 50 49 49 51 51 50 50 51 51 52 51 52 54 56 57 57 57 56 53 50 49 49 49 49 48 47 46 45 44 45 46 48 48 48 49 49 50 51 51 51 49 45 41 40 41 43 45 45 44 44 43 41 39 39 39 39 38 37 37 37 37 37 37 37 37 37 37 38 38 39 39 40 40 40 40 41 41 42 43 43 44
55 54 54 53 53 52 52 52 52 52 53 53 54 55 55 53 52 52 53 55 56 56 56 54 52 50 49 49 49 48 47 46 45 45 46 47 47 46 46 46 46 47 48 49 51 50 47 42 37 37 38 39 40 41 41 40 40 39 39 39 39 38 38 38 38 38 38 38 38 37 37 38 39 39 40 40 40 41 41 42 42 42 43 43 43 43
54 54 53 54 55 55 54 53 52 52 52 52 52 53 53 52 52 53 55 56 57 56 56 55 53 51 50 49 49 48 47 46 45 46 46 46 46 45 45 45 45 45 46 48 50 50 49 46 42 40 39 38 38 38 38 40 41 41 40 38 38 39 39 39 38 38 39 39 38 38 38 39 40 41 42 42 42 42 42 42 42 42 43 43 43 44
53 53 53 54 55 54 53 51 50 48 47 46 48 49 51 52 53 54 55 56 56 56 56 55 53 51 50 50 49 49 47 46 45 46 46 46 45 45 45 45 45 44 44 45 46 47 48 47 43 40 38 37 37 36 36 40 43 42 40 39 39 40 40 39 39 39 39 39 39 39 39 40 41 42 43 43 43 43 42 42 42 43 44 44 45 46
53 53 53 53 53 52 50 47 46 44 43 45 47 49 51 52 53 52 52 53 53 54 55 54 53 51 50 49 49 49 48 46 45 45 45 45 45 45 45 45 44 43 42 43 44 42 42 42 40 38 38 38 38 36 36 40 42 41 40 40 40 40 40 40 40 40 40 39 39 40 40 41 42 43 44 44 44 43 43 43 44 45 46 47 48 48
54 53 53 53 52 51 50 48 47 46 46 46 47 48 50 51 52 53 52 50 51 53 54 54 54 52 50 50 50 49 48 47 45 45 44 44 44 44 44 44 44 43 41 40 38 37 37 40 41 40 41 41 39 38 38 40 41 41 41 41 41 41 41 40 40 40 40 40 40 41 41 42 44 44 45 45 44 45 45 46 47 47 48 49 49 50
53 52 52 52 52 51 50 49 49 48 47 46 46 48 50 52 53 53 51 49 50 52 54 55 55 54 52 51 50 50 49 48 46 45 45 44 44 43 43 43 42 42 39 35 34 37 41 43 43 42 42 41 39 39 39 40 41 41 41 42 42 42 41 41 41 42 41 41 41 42 43 44 45 46 46 46 47 47 48 48 49 49 50 50 51 52
52 52 51 50 50 49 49 49 48 47 46 47 47 48 49 51 52 53 51 51 51 52 53 55 57 56 54 53 52 51 50 49 47 46 45 44 43 42 41 41 41 40 39 36 37 42 45 45 46 45 43 42 40 39 39 41 41 41 42 44 44 44 43 43 43 43 43 43 43 44 45 46 47 47 48 48 49 49 49 49 50 51 52 52 53 54
51 51 50 49 49 49 48 48 47 47 46 47 48 48 49 50 51 54 55 54 52 52 53 55 56 56 56 54 53 52 51 49 48 47 46 45 44 43 42 41 41 41 40 40 41 44 46 47 48 47 45 44 42 40 40 42 43 43 44 46 47 46 46 46 46 45 45 44 45 45 47 48 49 49 50 50 50 51 51 51 52 53 54 54 55 55
50 50 49 49 49 48 48 47 47 47 47 48 49 50 51 51 51 53 55 56 54 52 53 54 54 55 56 55 54 54 52 51 50 49 48 47 46 45 44 43 42 42 42 41 42 45 48 49 49 49 48 46 45 44 43 44 45 45 46 48 49 49 49 49 49 48 47 47 47 47 49 50 50 51 51 52 53 53 53 53 54 55 55 56 56 56
49 49 49 49 48 48 48 47 47 47 48 49 50 51 51 51 51 52 53 55 55 54 53 54 53 54 55 55 55 55 54 53 52 52 51 49 48 47 46 45 44 44 43 43 45 48 50 50 50 50 49 47 47 47 47 47 47 48 49 51 52 52 52 52 51 49 48 48 48 49 50 51 52 53 54 54 55 55 55 55 56 57 57 57 56 56
50 50 49 49 48 49 49 48 47 48 49 50 50 51 51 51 51 52 53 55 56 55 54 54 54 54 55 55 55 56 55 55 54 53 52 50 49 48 47 46 46 45 44 46 49 50 49 49 49 49 48 48 48 49 49 49 49 49 51 54 55 55 55 53 51 50 49 49 50 51 52 53 54 56 56 57 57 57 57 57 58 58 58 57 57 57
51 51 51 51 51 52 51 50 50 50 50 50 50 51 52 52 52 52 53 55 57 57 56 56 56 56 55 55 55 56 55 56 55 54 53 51 49 48 48 47 47 46 46 48 49 48 47 48 49 49 48 48 48 49 49 50 50 51 52 54 56 55 55 55 53 52 53 53 53 55 56 56 57 58 58 58 59 59 59 59 59 59 59 58 57 56
51 52 52 52 53 53 52 52 52 53 53 52 52 52 53 53 53 53 53 55 57 58 58 57 57 56 56 55 55 55 55 55 55 54 53 51 50 50 49 48 48 48 49 51 50 48 48 50 50 50 50 50 50 50 50 50 51 52 53 54 56 56 57 57 56 56 56 55 56 57 58 58 59 59 60 60 61 61 61 61 61 60 59 58 57 55
51 51 51 52 52 52 52 52 53 54 54 54 54 54 54 55 54 54 54 55 57 58 58 57 57 56 56 55 55 55 55 55 54 54 53 53 52 52 51 51 50 51 52 52 52 51 53 53 53 52 52 52 51 50 50 51 52 53 54 55 57 58 58 59 58 58 58 58 59 59 59 60 61 61 61 62 63 62 62 62 61 60 59 58 56 54
50 50 50 50 51 51 52 53 54 55 55 55 55 56 56 55 55 54 54 56 57 58 57 57 57 56 56 56 56 56 56 56 55 54 54 54 54 54 54 53 53 53 53 53 53 54 55 55 55 55 55 54 52 51 52 53 53 54 56 56 57 59 59 60 61 60 60 60 60 61 61 62 63 63 63 64 64 63 62 61 60 59 57 55 53 53
48 49 50 51 52 52 52 54 55 55 55 55 55 56 56 56 56 55 54 55 56 56 56 57 58 57 57 56 55 55 55 54 54 55 55 56 56 55 55 55 54 54 54 55 55 56 56 56 56 57 56 55 53 53 54 54 55 56 57 58 59 59 60 62 63 63 63 63 63 63 63 64 64 64 64 64 63 62 61 60 58 56 54 52 52 52
48 49 50 51 52 51 51 53 53 53 54 54 55 56 57 57 56 55 54 54 55 56 57 57 58 57 56 55 54 53 52 52 53 55 56 56 56 56 55 54 54 55 55 56 57 57 57 57 58 58 56 54 53 54 55 56 56 58 59 60 60 61 62 63 64 65 66 66 65 64 64 63 62 62 61 60 59 58 57 56 54 52 51 51 51 52
47 48 49 49 48 49 50 51 51 52 54 56 56 56 57 57 55 53 53 53 53 55 56 57 57 57 56 55 54 52 51 52 54 55 55 54 55 54 53 53 54 55 55 56 57 57 57 58 58 56 54 54 54 55 56 57 58 60 61 62 62 62 62 63 64 66 67 66 64 62 60 58 58 57 56 55 54 54 53 52 51 50 50 51 52 53
46 47 47 46 46 47 47 48 48 50 54 56 56 55 56 54 52 50 50 51 52 54 55 55 56 56 55 54 53 52 51 52 53 53 52 52 52 52 52 53 53 54 55 55 55 56 57 57 55 53 52 53 54 55 55 57 58 60 60 61 61 61 61 62 63 64 64 62 59 56 54 54 54 53 53 53 52 51 50 50 50 50 51 52 53 54
45 45 45 45 45 45 46 46 46 48 51 53 52 52 51 49 47 49 51 51 52 53 54 54 55 54 54 53 52 51 51 51 52 52 51 51 52 51 51 52 52 52 52 52 52 53 53 51 49 48 50 51 51 52 52 53 55 57 57 58 59 59 60 60 61 61 59 56 53 51 51 51 52 51 51 51 50 49 49 49 50 51 52 53 54 56
42 42 42 42 43 43 43 43 42 43 46 48 48 49 48 47 48 51 52 52 52 52 53 53 53 52 52 51 50 50 51 51 51 51 51 51 51 50 50 50 50 50 49 49 50 50 48 46 45 46 48 48 48 49 49 50 52 54 54 55 56 56 56 57 57 57 54 50 48 48 50 51 51 51 50 50 49 48 49 50 51 52 53 54 56 57
39 38 38 39 40 40 40 40 41 43 46 47 47 48 49 49 50 51 51 51 51 51 51 51 51 50 50 49 49 49 49 49 49 49 49 49 49 49 49 49 49 49 49 49 48 47 45 44 45 46 46 47 46 47 47 48 49 50 51 51 52 52 52 54 55 53 51 49 48 49 50 50 50 49 49 48 48 48 49 50 52 53 54 56 57 58
36 36 36 37 38 39 40 42 44 46 47 47 48 48 49 49 49 50 50 50 50 50 50 49 49 48 48 48 47 47 47 47 47 47 47 47 48 48 49 49 49 49 49 48 47 46 44 44 45 45 46 46 45 45 45 44 44 45 47 48 50 51 53 54 53 51 49 48 48 49 49 49 49 49 48 48 48 49 50 51 52 54 55 56 57 57
34 34 35 36 37 38 40 42 45 47 47 47 47 48 47 47 48 48 48 48 48 48 48 47 47 47 46 46 45 45 45 45 45 44 44 45 47 48 48 49 49 49 48 47 46 45 44 44 44 45 45 44 43 43 42 41 42 44 46 48 51 52 52 52 51 49 47 47 47 47 48 48 49 48 48 49 49 50 51 52 53 54 55 56 56 57
32 32 33 35 36 37 38 40 42 44 44 44 44 45 45 45 45 45 46 46 46 46 46 46 46 45 45 45 44 43 43 43 43 43 44 44 46 47 48 48 48 47 46 45 45 44 44 44 44 44 43 42 41 41 41 42 44 46 47 48 50 50 50 50 49 48 47 46 46 46 47 48 48 49 49 49 50 51 51 52 53 54 55 56 57 58
31 31 32 33 35 37 38 40 41 41 40 40 41 41 42 42 43 44 45 46 45 45 46 46 45 45 44 44 43 42 42 42 43 43 44 45 46 47 47 47 46 45 45 45 45 44 44 44 44 43 42 42 42 42 43 44 46 47 47 47 47 47 48 49 49 48 47 47 47 48 48 49 49 49 50 50 51 52 52 53 54 55 56 57 58 58
30 31 31 33 34 35 36 37 38 39 39 40 40 40 41 42 43 44 45 46 46 46 46 45 45 44 44 43 42 42 42 42 43 44 45 45 45 46 46 46 45 45 45 45 45 45 44 44 44 44 43 42 42 43 44 44 45 45 45 46 46 46 47 47 48 48 48 49 49 49 49 49 50 51 51 52 52 53 53 54 55 57 57 57 57 57
29 30 31 31 32 33 33 34 36 37 39 39 40 40 41 43 44 45 45 45 45 45 45 45 44 44 43 42 42 42 42 42 43 44 44 45 45 45 45 45 45 44 44 45 46 46 46 45 45 45 44 43 42 43 43 44 45 45 45 46 46 46 46 46 47 49 49 50 50 50 50 51 52 52 53 53 54 54 55 56 56 56 55 55 55 56
27 28 29 30 31 32 34 35 36 37 39 40 40 41 42 43 44 45 45 45 45 45 45 45 44 44 43 43 42 42 43 43 43 44 45 45 45 45 45 45 45 45 45 46 47 47 47 47 46 45 45 44 43 44 44 45 45 46 46 46 46 45 45 46 47 49 50 50 51 51 52 52 53 53 54 54 55 55 55 55 54 53 53 54 55 56
Wind_Direction
228 228 228 228 227 226 224 222 222 223 224 225 225 226 228 230 231 230 229 228 227 226 225 225 225 224 223 224 225 225 224 223 222 225 228 232 236 239 240 242 247 251 255 258 260 260 260 259 259 259 257 256 256 256 257 257 258 259 260 261 262 263 264 267 269 272 274 274 275 275 275 275 276 276 276 276 276 276 277 280 284 288 290 291 292 291
227 226 226 226 226 225 224 222 222 223 224 225 226 226 227 229 230 230 230 229 228 227 226 225 225 224 223 223 225 226 227 226 225 227 229 231 234 238 241 248 258 262 263 267 267 265 265 263 262 261 259 258 258 258 258 259 259 260 260 261 262 263 265 267 269 271 272 274 274 275 275 276 276 276 277 277 278 278 280 281 284 287 289 289 289 289
227 226 225 225 225 225 225 225 224 224 224 225 226 226 226 227 228 229 229 229 228 227 227 226 226 225 224 223 224 226 228 229 229 229 232 233 233 236 237 240 256 265 267 271 272 272 270 267 264 261 260 260 260 260 260 260 261 261 261 262 263 264 266 267 269 270 272 273 274 275 276 276 277 277 278 278 279 280 281 283 284 286 287 286 285 284
226 224 224 225 225 225 224 224 225 224 224 225 226 226 226 227 226 227 228 229 228 227 227 227 227 226 225 224 225 226 228 230 232 232 234 234 232 233 231 223 228 246 260 265 268 272 272 268 265 262 260 260 260 260 260 260 261 261 262 263 264 265 267 268 270 271 272 274 275 275 276 277 278 278 279 280 280 281 282 283 284 282 280 280 279 278
224 223 223 223 223 223 223 223 223 224 224 224 224 225 226 226 225 225 226 227 228 228 227 227 227 227 226 226 225 225 227 229 232 233 234 234 232 231 230 222 218 225 240 256 262 265 266 265 263 260 259 259 259 258 258 259 260 261 262 264 265 267 268 269 270 271 272 273 274 275 276 277 278 279 280 281 282 282 282 282 280 277 276 275 274 275
223 224 224 223 223 222 222 221 221 222 222 222 223 224 225 226 224 224 224 226 227 227 227 227 227 227 227 227 227 226 226 229 231 232 233 233 232 230 229 225 220 219 224 244 265 264 261 260 258 260 262 259 257 256 257 258 259 261 263 265 266 268 269 270 271 272 272 273 274 276 277 278 279 280 281 282 282 282 281 280 277 275 274 274 274 275
223 224 224 224 224 223 223 222 221 221 222 222 222 223 224 224 224 223 223 224 226 227 227 227 227 227 227 228 228 226 226 228 230 232 233 233 231 230 229 226 222 222 221 227 255 261 256 257 259 262 266 262 259 257 257 257 258 261 263 265 268 269 270 271 271 272 273 274 275 276 278 279 280 280 281 281 280 280 279 278 277 275 274 274 275 276
225 225 225 224 224 224 223 223 222 222 221 221 223 223 223 223 222 222 223 223 224 225 226 227 228 228 228 228 228 227 226 228 230 232 233 233 232 229 228 227 224 225 224 223 235 248 251 258 263 266 268 264 259 258 257 257 259 261 265 267 269 270 270 271 272 273 274 274 276 277 278 278 279 279 279 279 279 279 278 278 277 276 276 276 277 278
225 226 225 225 224 223 222 222 222 221 220 220 222 223 222 221 221 221 222 224 224 225 225 227 228 228 228 227 228 227 226 228 230 231 232 231 231 229 227 227 225 226 226 225 229 237 245 258 264 264 264 260 257 256 256 258 261 264 267 268 269 270 271 272 273 274 275 275 276 276 277 278 278 279 279 279 279 279 279 278 278 278 277 278 279 280
221 223 223 223 222 221 221 220 220 220 219 220 222 222 221 221 220 220 221 223 225 225 225 227 227 227 227 227 226 225 225 228 229 230 230 230 230 229 228 228 226 226 227 226 228 232 240 256 259 254 255 255 255 256 257 260 263 266 267 268 270 271 272 273 273 274 275 276 276 276 277 277 278 279 279 279 280 279 279 279 279 279 279 280 281 283
220 221 222 222 222 222 221 221 220 219 219 220 222 222 222 221 221 220 220 222 224 224 225 226 227 227 227 227 226 224 224 227 228 229 230 229 229 229 229 228 227 228 229 228 228 231 237 247 249 244 247 252 255 258 260 263 265 266 268 269 270 271 272 272 273 273 274 275 276 276 276 277 277 278 279 279 279 279 280 280 281 281 282 283 284 285
223 224 223 223 223 223 224 223 222 221 221 222 223 223 224 223 222 221 221 222 222 223 226 227 227 227 227 227 226 224 224 226 228 229 230 230 228 229 229 227 228 230 230 228 228 232 236 238 239 244 249 252 256 259 263 267 268 269 270 271 272 273 273 272 272 272 273 274 275 276 277 277 277 278 278 279 279 280 280 281 282 283 284 285 287 288
224 225 225 225 224 224 224 224 224 224 224 224 225 225 226 226 225 224 223 222 222 223 227 227 226 226 226 227 228 227 226 227 228 229 230 230 230 231 231 229 229 231 232 230 230 232 235 236 237 243 251 255 257 260 265 271 274 275 274 273 273 273 273 272 271 272 272 273 274 275 275 276 277 278 279 280 281 281 282 282 283 284 285 286 287 288
225 225 225 226 226 226 225 224 224 224 225 226 226 226 227 227 226 225 223 222 221 223 227 227 225 225 225 227 229 229 229 229 229 230 230 231 231 233 233 232 232 234 236 236 235 235 238 239 239 242 248 254 257 261 268 273 275 275 273 272 273 273 272 272 271 272 272 273 274 274 275 276 278 280 281 282 283 284 284 284 285 285 286 287 287 288
223 225 226 227 227 227 226 225 223 222 223 223 224 224 225 225 224 223 220 219 219 220 224 225 223 222 223 225 228 228 229 230 230 231 231 231 232 233 235 234 234 236 239 242 243 243 243 243 243 245 248 253 257 262 268 272 272 272 271 271 271 271 272 272 272 273 273 274 275 276 277 278 280 281 282 283 284 285 286 286 287 287 287 287 288 289
219 219 221 223 225 226 225 225 224 223 223 223 223 223 223 223 222 221 219 217 217 218 222 223 220 219 220 223 226 227 228 229 230 230 231 231 231 232 234 235 237 242 246 249 250 250 250 249 247 247 249 253 258 263 266 268 269 269 269 269 269 270 271 272 273 273 274 274 275 276 277 279 280 281 282 283 285 286 287 287 288 288 288 289 290 291
220 219 218 219 221 222 223 224 224 224 224 223 224 224 224 223 222 220 219 218 217 218 221 221 219 218 219 221 225 227 227 229 230 230 231 231 231 231 232 233 237 244 249 253 256 255 253 252 251 251 252 255 259 262 264 265 266 266 266 267 268 269 270 271 272 272 272 273 273 274 277 279 281 282 282 283 285 285 286 287 288 288 289 290 291 292
220 220 219 218 219 219 220 221 222 222 222 222 222 222 223 223 221 220 220 219 218 219 221 221 219 218 218 221 225 227 228 230 230 231 231 232 231 231 229 224 224 228 230 235 245 250 250 249 251 252 254 256 259 260 261 261 262 263 264 265 266 267 268 269 270 271 272 272 273 275 277 279 280 281 282 283 284 285 286 287 288 288 289 291 292 293
216 218 218 218 219 219 219 220 220 220 221 221 221 221 221 220 220 220 220 219 219 219 220 220 219 219 219 221 224 226 227 228 229 230 231 231 230 228 226 221 219 221 222 223 230 239 244 246 248 251 253 254 256 257 257 258 260 261 263 264 265 266 267 268 269 271 271 272 274 276 277 278 279 280 281 283 284 285 286 287 288 289 290 291 293 294
216 216 217 218 219 220 220 221 221 220 220 221 221 223 223 220 218 218 218 218 217 218 219 219 218 219 220 221 222 224 226 227 228 229 229 229 227 226 225 223 222 224 226 228 231 237 243 245 247 248 250 251 252 253 255 257 259 262 263 264 265 265 266 268 269 271 272 273 274 275 277 278 280 281 282 284 285 286 286 287 288 289 291 293 295 296
217 217 217 218 220 222 222 222 222 221 220 220 220 222 223 221 219 219 218 217 217 217 217 217 217 218 220 221 221 223 225 227 228 229 229 229 229 228 227 226 225 225 227 231 234 238 242 244 244 244 246 247 249 251 254 257 259 261 262 263 264 264 266 268 271 272 274 275 276 277 279 280 281 282 284 284 285 286 287 288 289 291 293 294 296 297
219 219 219 219 220 221 222 221 220 219 218 218 217 219 219 217 217 218 218 218 218 218 219 218 218 220 221 221 222 222 224 225 226 227 228 229 229 230 230 230 229 229 229 230 233 235 239 241 241 242 244 246 248 251 254 257 259 261 262 263 263 265 267 268 270 272 274 275 277 278 279 280 282 283 285 285 286 286 287 289 291 293 294 295 296 297
218 219 219 219 218 218 218 219 220 219 218 217 217 217 217 215 214 214 215 215 216 217 218 218 219 221 223 223 222 222 223 223 223 224 225 227 228 229 230 231 232 232 231 232 233 235 239 243 245 246 247 249 251 253 255 256 258 260 261 262 263 264 266 267 269 271 273 274 276 277 278 280 282 283 284 284 285 286 288 291 293 295 296 296 296 297
218 218 218 218 218 218 218 219 220 220 220 220 220 220 219 217 216 214 213 213 212 213 215 216 218 220 221 222 222 221 222 222 222 223 224 225 226 227 228 229 229 230 231 232 234 236 240 245 249 252 253 251 251 253 256 257 258 258 260 262 264 265 266 268 269 271 272 273 274 276 278 280 281 282 283 284 285 287 290 292 294 295 296 295 295 296
217 218 219 219 220 221 221 222 223 223 223 223 223 223 221 219 218 217 216 215 212 211 212 214 216 218 218 219 220 219 220 221 222 223 224 225 225 225 226 227 227 228 230 233 235 238 241 244 247 251 252 251 250 251 255 258 258 259 261 264 265 267 267 268 269 270 271 272 274 276 277 279 280 282 283 284 286 288 289 291 293 295 295 295 295 296
215 216 218 219 221 222 224 226 227 227 225 224 224 223 223 220 219 219 218 217 215 212 212 213 215 217 218 219 220 220 219 219 221 223 224 225 225 225 226 227 228 228 229 232 235 237 241 244 245 247 250 252 252 251 253 258 261 263 266 268 268 268 268 268 269 269 270 272 273 275 277 279 280 281 283 284 285 286 287 289 292 293 294 294 295 296
215 215 216 218 219 220 221 222 223 223 223 224 224 224 223 222 220 219 218 217 216 214 213 213 215 216 217 218 220 220 220 219 220 222 224 226 227 227 227 228 228 228 229 231 235 239 241 243 245 247 249 252 255 255 255 258 261 264 266 267 268 268 268 268 268 268 270 271 273 275 277 278 279 280 281 283 284 285 287 289 291 293 294 295 295 295
216 216 216 217 219 220 221 221 221 221 221 222 224 224 224 222 221 220 218 217 217 215 213 214 215 215 215 216 218 220 220 220 220 221 223 225 227 228 229 229 230 230 229 228 232 237 240 242 244 246 249 252 254 256 257 259 260 262 263 263 264 265 265 265 266 267 268 270 272 274 276 277 278 279 280 281 282 285 287 289 291 293 294 295 295 296
216 217 217 219 220 221 222 223 223 223 222 222 223 224 224 223 221 219 217 217 217 215 214 215 216 215 214 214 216 218 220 220 220 221 222 224 226 228 229 231 231 232 230 225 224 231 237 241 244 246 248 251 253 254 257 260 261 262 262 262 261 261 262 262 263 265 267 269 271 273 274 275 276 277 278 280 282 285 288 290 292 294 295 296 296 296
216 217 218 219 221 222 224 225 225 225 224 224 224 225 224 224 222 219 217 216 216 215 214 215 217 218 217 216 216 217 219 221 221 222 223 224 225 227 228 230 230 231 232 229 227 231 235 239 243 246 247 250 251 252 253 256 259 260 261 262 262 262 262 262 264 266 268 270 272 273 274 274 275 276 277 280 283 286 289 291 293 294 296 296 297 297
217 218 218 220 221 223 225 226 227 227 226 225 226 226 225 223 222 220 218 216 215 214 214 215 217 219 220 218 218 218 218 220 221 222 223 223 224 225 227 228 230 231 232 233 233 234 237 240 243 245 246 248 250 250 250 253 256 258 260 262 264 264 264 264 266 268 270 272 273 274 275 275 275 276 278 281 285 287 289 291 293 295 296 297 297 298
218 218 219 221 222 224 225 226 227 228 228 227 227 227 227 226 223 221 219 218 216 215 215 215 216 219 221 220 219 219 219 220 221 222 223 223 224 225 226 228 229 231 232 234 235 236 238 241 244 246 247 249 250 251 252 253 256 258 261 262 264 265 266 267 268 270 272 273 274 276 276 276 276 277 280 283 286 288 290 292 293 295 296 296 297 297
218 218 219 221 222 224 225 226 227 228 228 228 228 229 229 229 226 222 219 218 217 216 215 215 215 218 221 221 221 221 220 221 222 223 224 225 225 226 227 228 230 231 233 236 237 239 240 243 246 248 250 250 251 252 254 255 257 259 262 264 265 266 268 269 270 272 273 275 276 276 277 278 278 279 282 284 286 288 289 291 293 294 295 295 296 296
217 218 219 220 222 223 224 224 226 227 228 227 228 229 229 229 228 225 221 218 217 217 216 215 216 217 219 221 222 222 222 222 223 224 225 226 227 228 229 231 232 233 234 237 239 241 243 246 247 248 249 250 251 252 254 256 257 258 261 265 267 269 270 271 272 273 274 275 276 277 278 278 279 281 283 284 286 287 289 290 292 293 294 294 295 295
218 220 221 222 223 224 225 225 226 226 226 226 226 227 228 228 228 226 223 219 217 217 217 216 217 218 219 220 222 223 224 225 226 226 227 228 229 230 231 232 233 234 235 236 238 240 243 245 247 247 248 249 251 253 255 257 258 260 261 264 267 269 271 272 273 274 275 276 276 276 278 279 280 282 283 284 285 287 288 290 291 292 293 294 294 293
221 223 224 225 226 227 227 228 229 228 227 226 226 226 226 227 227 226 223 220 217 217 217 217 217 219 220 221 222 223 224 225 227 228 229 229 230 231 232 233 234 235 236 237 238 239 241 243 245 247 249 251 253 255 257 259 260 262 263 265 267 269 271 272 273 274 274 275 275 276 278 279 280 282 284 284 286 287 289 290 291 292 292 293 292 292
224 225 226 227 229 229 229 229 229 229 227 226 225 225 225 226 226 225 224 220 217 216 217 218 218 218 221 223 223 223 224 225 226 228 229 230 231 232 233 234 235 237 238 239 241 242 243 245 247 249 250 252 254 257 260 261 262 264 265 267 269 271 273 274 274 274 275 275 276 277 279 280 282 283 284 285 287 288 289 290 290 291 291 291 291 291
226 228 228 229 229 229 228 229 229 229 228 226 225 225 224 224 224 224 223 221 217 216 216 218 218 218 220 223 224 225 226 227 228 229 230 231 232 233 234 235 236 238 240 241 243 244 246 248 249 251 252 254 257 260 262 263 264 266 267 269 270 271 273 274 275 276 276 276 277 279 280 282 283 284 285 286 287 288 289 289 290 290 290 289 289 290
228 229 229 230 230 229 228 228 229 228 227 226 225 224 223 223 222 221 221 220 217 215 216 217 219 219 220 223 225 226 227 229 230 231 231 232 234 235 236 237 239 240 242 243 245 246 248 250 251 253 254 257 259 261 263 264 265 267 268 269 269 271 272 273 275 276 276 277 278 280 282 283 284 285 285 287 287 288 288 289 289 288 288 289 289 289
228 229 230 230 230 230 229 228 228 228 226 225 223 222 222 222 220 219 219 218 216 215 216 217 218 219 220 222 225 226 227 228 230 232 233 234 236 237 239 240 241 243 244 245 247 248 250 252 253 255 257 259 260 261 262 264 265 265 266 267 268 270 271 272 274 275 276 278 280 282 283 284 284 285 286 287 287 287 288 288 287 287 288 288 289 289
226 227 228 228 227 227 226 225 226 226 226 224 222 220 220 220 219 218 218 217 216 215 216 217 218 219 220 222 224 227 228 230 231 232 233 235 237 238 239 241 242 244 245 247 248 250 252 253 256 258 259 260 260 261 261 263 263 264 265 266 267 268 270 271 272 274 277 279 281 282 283 283 283 285 286 287 287 287 287 287 287 287 287 288 288 288
226 226 225 224 223 222 220 220 220 221 223 223 221 219 218 218 217 217 217 217 216 216 216 217 218 220 221 223 225 228 230 232 233 233 233 235 237 239 240 242 244 245 246 248 250 251 253 255 257 258 258 258 259 260 261 263 265 266 266 267 268 269 271 272 273 275 276 278 280 282 282 283 284 285 286 287 287 287 287 286 286 287 287 287 288 289
225 225 223 221 220 217 216 215 215 216 218 218 217 215 214 213 213 214 216 216 216 216 217 217 218 220 221 223 226 229 231 232 234 234 234 235 237 239 241 243 244 246 247 248 250 252 253 255 256 257 258 259 260 262 264 265 267 268 269 270 271 272 274 274 275 276 279 281 283 283 284 284 286 286 286 287 287 286 286 286 286 286 286 287 288 290
220 220 220 219 217 214 211 208 208 209 212 212 211 211 210 210 211 213 214 215 216 216 217 218 219 220 222 224 226 229 232 234 234 235 236 237 238 240 242 243 245 246 248 249 251 253 254 256 257 258 260 261 262 264 265 266 267 268 270 272 273 274 274 274 276 278 281 283 284 285 285 285 286 286 286 286 285 285 285 285 285 285 286 287 289 291
215 214 214 213 212 211 208 206 205 206 208 209 209 209 209 209 210 212 213 214 215 216 217 218 220 221 223 225 228 231 233 235 236 237 238 239 240 241 242 244 246 247 249 250 252 254 255 256 258 260 261 263 263 264 264 264 266 268 271 272 272 272 272 274 276 280 282 284 285 285 285 285 285 285 285 285 285 284 284 284 285 285 287 288 290 291
210 210 210 210 209 209 209 209 209 208 209 209 209 209 209 210 211 212 213 214 216 217 219 219 221 223 225 226 229 232 234 236 238 238 239 240 242 243 244 245 247 248 250 252 253 255 256 257 258 260 260 261 261 260 261 262 264 266 267 268 270 272 274 277 279 281 282 283 283 283 283 284 285 285 285 284 283 283 283 284 285 287 288 289 291 292
208 207 208 209 208 208 209 211 212 213 212 212 212 212 211 211 212 214 215 216 217 219 221 221 223 224 226 228 230 232 234 236 238 239 240 241 242 244 245 246 248 249 251 253 254 255 256 257 258 258 258 258 258 259 261 262 264 264 266 268 272 275 278 279 280 281 282 282 283 283 283 284 284 284 283 283 282 283 285 286 287 288 289 290 291 292
205 205 207 208 209 209 209 210 212 213 214 214 214 214 214 213 214 215 216 218 219 220 222 223 224 226 227 229 231 234 236 237 239 239 240 241 242 244 246 247 248 250 251 253 254 255 255 255 255 255 256 257 259 261 262 263 265 268 270 273 275 277 278 279 281 282 283 284 284 284 283 283 283 283 283 283 284 285 286 287 288 289 290 291 291 291
204 203 205 208 210 211 212 212 213 213 213 213 213 213 214 214 215 216 218 219 221 222 223 224 226 227 228 230 233 235 237 239 240 241 242 242 243 245 246 248 249 250 251 252 253 253 253 253 254 255 257 258 260 262 264 265 267 269 271 272 273 274 275 277 279 280 281 282 281 281 282 282 282 282 282 283 284 285 286 287 288 289 290 290 290 290
205 204 204 206 209 212 213 214 214 214 213 213 213 213 214 215 216 218 219 221 223 224 225 226 228 229 230 231 234 236 238 239 240 241 242 243 244 245 247 248 249 250 250 251 251 252 252 254 255 257 258 259 261 262 264 266 267 268 268 269 269 270 271 273 274 276 277 277 278 279 279 280 280 281 281 282 284 285 286 287 288 288 288 288 289 290
206 206 205 205 207 209 211 212 213 213 213 213 213 214 215 216 217 219 221 222 224 226 227 228 229 230 231 232 234 236 237 238 240 241 242 244 244 245 246 246 247 248 248 250 251 253 254 255 256 258 258 259 260 261 263 265 267 268 268 267 267 268 269 271 272 272 273 274 275 276 276 277 278 279 281 282 284 285 285 286 286 286 287 288 289 291
Height
10586 10592 10600 10606 10610 10612 10614 10616 10617 10619 10624 10628 10632 10636 10640 10643 10647 10652 10657 10661 10664 10668 10672 10675 10678 10682 10687 10690 10693 10697 10700 10703 10706 10708 10709 10712 10718 10723 10727 10731 10734 10736 10738 10739 10740 10741 10742 10743 10745 10747 10748 10750 10751 10752 10754 10755 10756 10756 10756 10757 10757 10758 10758 10758 10758 10758 10758 10758 10759 10758 10758 10758 10758 10758 10758 10759 10758 10757 10756 10755 10755 10754 10753 10752 10751 10750
10580 10589 10596 10599 10600 10602 10605 10609 10611 10616 10621 10624 10629 10633 10637 10639 10643 10649 10653 10657 10660 10664 10667 10670 10673 10677 10682 10686 10689 10693 10695 10698 10702 10705 10707 10711 10717 10722 10727 10733 10734 10735 10736 10737 10737 10737 10737 10738 10740 10741 10743 10745 10746 10747 10749 10750 10751 10752 10752 10753 10753 10753 10754 10754 10754 10754 10754 10754 10754 10754 10753 10753 10754 10754 10754 10754 10754 10753 10752 10751 10751 10750 10749 10748 10747 10746
10577 10585 10588 10589 10591 10595 10601 10605 10609 10613 10617 10621 10625 10629 10632 10634 10639 10644 10648 10652 10656 10659 10662 10665 10669 10673 10678 10682 10685 10688 10691 10694 10698 10702 10704 10709 10716 10720 10727 10734 10734 10733 10734 10734 10734 10733 10733 10734 10734 10735 10737 10739 10741 10742 10744 10745 10746 10747 10747 10748 10748 10749 10749 10749 10749 10749 10749 10749 10749 10749 10749 10749 10749 10749 10749 10749 10749 10748 10748 10747 10746 10746 10745 10744 10743 10742
10572 10577 10579 10581 10585 10589 10596 10600 10604 10609 10613 10618 10621 10625 10627 10628 10634 10640 10644 10648 10651 10655 10657 10661 10665 10670 10674 10678 10681 10685 10689 10692 10695 10698 10701 10706 10712 10716 10721 10728 10728 10729 10732 10732 10729 10728 10728 10729 10729 10730 10731 10732 10735 10736 10738 10739 10741 10742 10742 10742 10743 10744 10744 10744 10744 10744 10744 10744 10744 10744 10744 10744 10744 10744 10744 10744 10744 10743 10743 10742 10741 10741 10741 10740 10739 10737
10564 10566 10568 10572 10577 10583 10589 10594 10599 10604 10608 10612 10616 10619 10621 10623 10629 10635 10638 10642 10646 10650 10653 10657 10661 10666 10670 10674 10678 10682 10686 10688 10690 10693 10696 10700 10705 10709 10714 10718 10718 10719 10723 10725 10725 10724 10724 10724 10723 10724 10725 10727 10729 10730 10732 10733 10735 10736 10737 10737 10738 10739 10739 10739 10739 10739 10739 10739 10739 10738 10739 10739 10739 10739 10739 10738 10739 10738 10738 10737 10736 10736 10736 10735 10734 10733
10555 10558 10561 10566 10571 10577 10583 10588 10594 10598 10602 10606 10610 10613 10614 10618 10625 10630 10633 10637 10641 10645 10650 10654 10658 10662 10667 10670 10674 10679 10682 10685 10687 10689 10691 10693 10698 10703 10706 10709 10712 10713 10715 10719 10722 10720 10717 10717 10718 10718 10720 10722 10723 10725 10726 10728 10729 10730 10732 10732 10733 10734 10734 10734 10734 10734 10734 10734 10734 10733 10734 10734 10734 10734 10734 10734 10733 10733 10733 10732 10732 10731 10731 10730 10729 10728
10549 10552 10555 10561 10566 10571 10578 10583 10588 10592 10597 10601 10604 10605 10608 10614 10621 10626 10629 10632 10636 10641 10646 10651 10655 10659 10663 10666 10670 10675 10679 10681 10683 10685 10686 10688 10693 10696 10698 10703 10708 10710 10711 10714 10717 10716 10712 10712 10713 10714 10716 10717 10719 10720 10722 10723 10724 10725 10727 10728 10728 10729 10729 10729 10729 10729 10729 10729 10729 10729 10729 10729 10729 10729 10729 10729 10728 10728 10728 10728 10727 10726 10725 10724 10723 10723
10545 10547 10550 10556 10560 10567 10574 10579 10584 10588 10592 10596 10597 10598 10603 10610 10616 10620 10624 10628 10632 10637 10642 10647 10652 10656 10660 10663 10666 10671 10675 10677 10679 10681 10682 10684 10686 10689 10693 10698 10701 10702 10704 10706 10707 10708 10708 10708 10710 10711 10712 10714 10715 10716 10717 10718 10719 10721 10722 10723 10723 10724 10724 10724 10724 10724 10724 10723 10723 10724 10723 10723 10723 10723 10723 10723 10723 10722 10722 10722 10722 10721 10720 10718 10718 10717
10540 10541 10546 10550 10554 10562 10568 10572 10576 10580 10586 10588 10588 10591 10598 10604 10610 10615 10620 10624 10628 10633 10640 10644 10649 10653 10656 10660 10663 10666 10671 10673 10674 10675 10676 10677 10680 10684 10688 10691 10693 10694 10696 10697 10699 10700 10702 10703 10705 10706 10708 10710 10711 10712 10713 10715 10716 10717 10717 10718 10718 10719 10719 10719 10719 10719 10718 10718 10718 10718 10718 10718 10718 10718 10718 10717 10717 10716 10716 10716 10716 10716 10715 10714 10712 10711
10531 10533 10536 10541 10547 10554 10557 10561 10566 10573 10578 10579 10579 10585 10593 10599 10606 10612 10617 10621 10625 10631 10637 10641 10645 10648 10652 10656 10659 10663 10667 10667 10667 10667 10669 10672 10676 10680 10682 10684 10688 10688 10687 10691 10694 10694 10695 10699 10700 10701 10704 10706 10707 10709 10711 10712 10712 10713 10713 10713 10713 10714 10715 10715 10714 10714 10713 10713 10713 10713 10713 10713 10712 10712 10712 10712 10711 10710 10710 10709 10709 10709 10709 10708 10707 10706
10523 10525 10530 10536 10543 10546 10548 10553 10560 10565 10569 10571 10575 10582 10589 10596 10602 10609 10614 10618 10623 10630 10633 10636 10640 10644 10648 10652 10656 10659 10660 10659 10659 10661 10664 10669 10672 10674 10675 10679 10682 10682 10682 10686 10689 10689 10692 10696 10697 10698 10700 10702 10704 10706 10707 10708 10708 10708 10708 10708 10709 10709 10710 10710 10709 10709 10709 10708 10708 10708 10708 10707 10707 10707 10707 10707 10706 10705 10704 10704 10704 10703 10703 10702 10701 10701
10519 10523 10529 10534 10538 10541 10545 10551 10557 10561 10565 10568 10573 10580 10587 10593 10600 10607 10612 10617 10623 10627 10628 10631 10636 10640 10645 10648 10651 10653 10653 10653 10655 10658 10660 10663 10667 10667 10669 10674 10676 10676 10677 10681 10684 10685 10688 10692 10694 10695 10697 10699 10700 10701 10703 10704 10704 10704 10704 10703 10704 10704 10704 10704 10704 10704 10704 10703 10703 10703 10703 10702 10702 10702 10702 10702 10701 10700 10699 10699 10698 10698 10697 10696 10695 10695
10517 10522 10527 10530 10533 10537 10542 10548 10553 10559 10563 10566 10572 10579 10585 10592 10599 10606 10612 10617 10622 10624 10624 10627 10632 10637 10641 10644 10645 10647 10648 10649 10652 10654 10656 10659 10663 10664 10666 10671 10673 10674 10675 10678 10681 10683 10684 10688 10691 10692 10693 10695 10696 10697 10698 10698 10699 10700 10699 10699 10699 10699 10699 10699 10699 10699 10699 10699 10699 10698 10698 10698 10697 10697 10697 10697 10696 10695 10695 10694 10693 10693 10692 10691 10690 10689
10514 10518 10523 10526 10529 10534 10539 10545 10551 10556 10560 10564 10570 10576 10583 10590 10598 10604 10610 10615 10618 10619 10619 10623 10629 10634 10638 10639 10640 10642 10643 10645 10647 10650 10653 10657 10660 10661 10664 10669 10673 10674 10675 10677 10679 10681 10683 10686 10688 10689 10690 10691 10691 10692 10693 10694 10695 10695 10695 10694 10694 10694 10694 10694 10694 10694 10694 10694 10694 10694 10694 10693 10693 10693 10692 10692 10691 10690 10690 10689 10689 10688 10687 10686 10685 10685
10509 10515 10520 10523 10526 10530 10535 10540 10544 10548 10551 10555 10562 10569 10577 10585 10592 10599 10604 10609 10612 10614 10614 10618 10625 10630 10633 10634 10634 10635 10637 10640 10643 10646 10650 10653 10656 10659 10662 10667 10672 10674 10675 10676 10678 10680 10682 10684 10685 10686 10687 10687 10688 10689 10689 10690 10691 10691 10690 10689 10689 10689 10690 10690 10690 10690 10690 10690 10689 10689 10689 10689 10688 10688 10688 10687 10686 10686 10685 10684 10684 10683 10682 10681 10680 10680
10503 10509 10514 10516 10520 10525 10529 10533 10537 10540 10544 10550 10557 10564 10572 10579 10586 10592 10598 10602 10606 10608 10610 10615 10622 10626 10627 10627 10627 10629 10632 10634 10638 10642 10645 10648 10652 10656 10660 10666 10671 10675 10676 10676 10676 10676 10678 10679 10680 10681 10683 10684 10685 10686 10686 10686 10686 10686 10685 10685 10685 10686 10686 10686 10685 10685 10685 10685 10685 10685 10685 10684 10684 10683 10683 10682 10682 10681 10681 10680 10679 10678 10677 10676 10675 10675
10500 10504 10506 10509 10513 10518 10522 10527 10531 10536 10541 10548 10555 10563 10569 10574 10581 10587 10593 10597 10601 10604 10607 10612 10618 10621 10621 10620 10621 10624 10627 10630 10634 10637 10640 10644 10649 10653 10659 10667 10674 10676 10677 10677 10677 10674 10672 10673 10674 10675 10678 10681 10682 10682 10682 10682 10681 10681 10680 10680 10681 10681 10681 10681 10681 10680 10680 10681 10681 10681 10680 10680 10679 10679 10679 10678 10678 10677 10677 10676 10675 10674 10672 10671 10671 10670
10494 10498 10501 10504 10507 10511 10516 10520 10524 10530 10537 10544 10552 10557 10561 10567 10576 10583 10588 10594 10598 10601 10605 10609 10613 10616 10616 10615 10617 10620 10623 10626 10629 10632 10636 10640 10646 10651 10657 10663 10665 10664 10665 10670 10672 10668 10665 10666 10668 10671 10675 10677 10678 10678 10678 10677 10676 10676 10676 10677 10677 10677 10677 10677 10676 10676 10677 10677 10677 10677 10677 10676 10676 10675 10675 10675 10674 10674 10673 10672 10671 10669 10668 10667 10667 10666
10487 10491 10495 10499 10502 10506 10510 10515 10521 10529 10536 10541 10546 10549 10553 10562 10572 10578 10584 10590 10594 10598 10601 10604 10608 10610 10610 10611 10612 10615 10618 10621 10624 10628 10632 10637 10642 10646 10649 10652 10653 10651 10653 10657 10659 10657 10657 10661 10664 10667 10671 10673 10673 10673 10672 10672 10671 10671 10672 10673 10674 10673 10673 10672 10672 10673 10673 10673 10673 10673 10673 10673 10672 10672 10671 10671 10670 10669 10669 10668 10666 10665 10664 10663 10663 10662
10481 10486 10490 10494 10497 10502 10508 10514 10522 10528 10533 10537 10542 10546 10551 10559 10566 10571 10577 10582 10587 10591 10594 10598 10602 10604 10604 10605 10607 10610 10613 10616 10620 10624 10628 10632 10636 10638 10641 10645 10647 10648 10650 10652 10652 10652 10654 10658 10661 10664 10666 10667 10667 10667 10667 10668 10667 10668 10669 10670 10670 10669 10669 10669 10669 10669 10670 10669 10669 10669 10669 10669 10668 10667 10667 10666 10666 10665 10664 10663 10662 10662 10661 10660 10659 10657
10478 10483 10487 10491 10495 10501 10509 10516 10520 10523 10527 10532 10538 10543 10548 10556 10562 10565 10570 10575 10580 10585 10588 10593 10597 10597 10597 10599 10603 10606 10609 10613 10617 10620 10624 10628 10630 10633 10637 10640 10643 10645 10647 10648 10649 10651 10653 10654 10655 10658 10660 10661 10662 10663 10663 10664 10664 10664 10665 10666 10665 10665 10665 10666 10665 10666 10665 10665 10665 10665 10664 10664 10664 10663 10663 10662 10662 10661 10660 10659 10659 10658 10657 10656 10654 10653
10476 10481 10485 10489 10495 10502 10507 10509 10511 10516 10521 10525 10530 10534 10539 10548 10554 10559 10566 10572 10578 10582 10585 10590 10593 10592 10593 10596 10599 10603 10606 10610 10613 10617 10620 10622 10625 10629 10633 10636 10639 10641 10644 10646 10647 10649 10650 10650 10651 10653 10654 10656 10657 10659 10660 10660 10660 10660 10660 10661 10661 10661 10661 10661 10661 10662 10661 10661 10661 10661 10661 10660 10660 10659 10659 10658 10658 10657 10656 10655 10655 10654 10653 10651 10650 10649
10472 10477 10482 10487 10492 10494 10497 10500 10505 10510 10514 10518 10523 10527 10533 10541 10548 10553 10560 10565 10570 10576 10581 10586 10589 10589 10590 10593 10596 10599 10602 10605 10609 10612 10614 10617 10620 10625 10629 10632 10635 10638 10641 10643 10644 10646 10647 10648 10648 10649 10650 10652 10653 10654 10655 10655 10655 10655 10655 10656 10656 10657 10657 10657 10658 10658 10657 10657 10657 10657 10657 10656 10656 10655 10655 10654 10654 10653 10652 10651 10650 10649 10648 10647 10646 10644
10468 10473 10479 10483 10485 10487 10491 10496 10501 10505 10510 10517 10523 10528 10534 10541 10545 10548 10552 10555 10561 10568 10574 10579 10583 10584 10586 10588 10591 10595 10598 10601 10604 10607 10610 10613 10617 10621 10624 10627 10630 10633 10636 10638 10640 10643 10645 10646 10646 10646 10646 10648 10649 10649 10650 10649 10649 10650 10651 10652 10653 10653 10653 10654 10654 10654 10654 10653 10653 10653 10653 10652 10652 10651 10650 10650 10649 10649 10648 10647 10646 10645 10644 10642 10641 10640
10465 10470 10474 10478 10481 10484 10490 10495 10499 10506 10513 10519 10523 10527 10532 10536 10539 10543 10547 10551 10558 10564 10568 10573 10578 10580 10581 10583 10586 10590 10594 10597 10600 10603 10606 10610 10613 10617 10619 10622 10626 10629 10632 10634 10637 10640 10642 10642 10642 10641 10642 10644 10645 10646 10645 10644 10644 10646 10647 10648 10649 10649 10649 10650 10650 10650 10650 10650 10650 10650 10649 10649 10648 10647 10646 10646 10645 10644 10643 10642 10641 10640 10639 10638 10636 10634
10460 10465 10470 10474 10479 10484 10490 10496 10502 10508 10513 10515 10518 10522 10526 10530 10535 10540 10545 10550 10556 10561 10566 10570 10574 10576 10578 10580 10583 10586 10590 10594 10596 10599 10602 10606 10609 10613 10615 10618 10622 10626 10629 10631 10634 10637 10638 10636 10636 10637 10638 10639 10641 10643 10643 10640 10640 10642 10643 10644 10644 10645 10645 10646 10646 10645 10645 10646 10646 10645 10645 10644 10643 10642 10641 10641 10640 10639 10638 10637 10636 10635 10634 10632 10631 10629
10457 10461 10466 10471 10475 10480 10486 10491 10496 10501 10505 10509 10513 10517 10521 10526 10531 10535 10541 10548 10553 10558 10562 10566 10569 10571 10574 10576 10579 10582 10586 10590 10594 10596 10599 10601 10604 10608 10611 10614 10618 10622 10626 10630 10633 10635 10632 10629 10631 10633 10634 10635 10637 10639 10639 10637 10637 10639 10639 10639 10640 10640 10641 10641 10641 10641 10641 10641 10642 10641 10641 10640 10638 10637 10637 10636 10635 10634 10633 10633 10631 10630 10628 10627 10625 10624
10454 10459 10463 10467 10472 10477 10481 10485 10489 10495 10500 10504 10508 10511 10515 10520 10525 10530 10538 10544 10548 10552 10557 10561 10562 10566 10569 10572 10574 10577 10581 10585 10589 10592 10595 10597 10600 10604 10607 10610 10614 10618 10622 10628 10631 10629 10625 10624 10626 10627 10629 10631 10633 10634 10634 10633 10634 10635 10636 10636 10636 10636 10636 10637 10636 10636 10637 10637 10637 10637 10636 10635 10634 10632 10632 10631 10630 10629 10628 10627 10626 10625 10623 10622 10620 10618
10452 10456 10461 10466 10470 10474 10478 10482 10487 10492 10496 10500 10503 10506 10510 10514 10520 10526 10533 10537 10541 10547 10552 10554 10557 10560 10563 10566 10569 10573 10576 10581 10585 10588 10591 10594 10598 10601 10604 10607 10610 10614 10617 10621 10622 10620 10619 10621 10621 10622 10625 10627 10629 10630 10631 10630 10630 10632 10632 10631 10632 10632 10632 10632 10631 10632 10632 10633 10633 10632 10631 10630 10628 10627 10627 10626 10625 10624 10623 10622 10620 10619 10618 10616 10614 10612
10449 10454 10459 10463 10467 10471 10475 10479 10484 10488 10492 10496 10498 10501 10505 10509 10515 10520 10525 10529 10535 10541 10545 10549 10553 10556 10559 10562 10565 10569 10573 10577 10581 10585 10588 10592 10595 10598 10600 10603 10606 10609 10612 10614 10616 10616 10616 10616 10617 10618 10621 10623 10624 10626 10628 10627 10626 10627 10627 10626 10627 10627 10627 10627 10627 10627 10628 10628 10628 10627 10626 10624 10623 10622 10621 10620 10619 10619 10618 10616 10615 10613 10612 10610 10608 10606
10447 10451 10456 10460 10463 10468 10472 10475 10480 10484 10488 10491 10493 10496 10500 10504 10509 10514 10519 10525 10531 10536 10541 10545 10549 10553 10556 10559 10562 10566 10569 10573 10576 10580 10583 10587 10590 10593 10596 10599 10602 10604 10606 10609 10611 10613 10612 10611 10612 10615 10617 10618 10619 10621 10622 10622 10622 10622 10622 10621 10621 10621 10622 10621 10622 10623 10623 10623 10623 10622 10620 10619 10618 10616 10615 10615 10614 10613 10612 10610 10609 10607 10606 10604 10602 10599
10443 10448 10452 10456 10460 10464 10467 10471 10475 10478 10481 10484 10488 10491 10495 10500 10505 10510 10516 10522 10527 10531 10536 10540 10545 10548 10551 10555 10558 10561 10565 10568 10571 10574 10578 10581 10585 10588 10591 10594 10596 10599 10602 10604 10605 10605 10605 10606 10608 10610 10612 10614 10614 10615 10616 10617 10617 10617 10616 10615 10615 10615 10615 10616 10617 10618 10618 10618 10617 10616 10615 10613 10612 10611 10610 10609 10608 10607 10606 10604 10603 10601 10599 10597 10595 10593
10438 10443 10447 10451 10454 10457 10461 10466 10470 10472 10475 10479 10484 10488 10492 10496 10501 10506 10511 10516 10521 10525 10530 10535 10538 10541 10545 10549 10553 10556 10559 10563 10566 10569 10573 10577 10580 10584 10586 10589 10591 10594 10597 10597 10597 10597 10599 10601 10602 10604 10606 10608 10609 10610 10611 10612 10612 10612 10610 10608 10609 10610 10610 10611 10612 10613 10612 10612 10611 10610 10609 10607 10606 10605 10604 10604 10602 10601 10600 10598 10596 10595 10593 10591 10589 10587
10433 10437 10441 10445 10447 10451 10455 10460 10463 10466 10469 10474 10479 10483 10487 10491 10496 10500 10505 10510 10514 10519 10524 10528 10532 10535 10540 10544 10547 10551 10554 10558 10561 10565 10569 10573 10576 10579 10582 10584 10587 10590 10590 10589 10589 10591 10594 10595 10596 10597 10600 10602 10603 10605 10606 10606 10607 10607 10605 10603 10603 10604 10604 10605 10606 10606 10605 10605 10604 10603 10602 10601 10600 10599 10598 10597 10596 10595 10594 10592 10590 10589 10587 10585 10582 10580
10428 10431 10435 10439 10442 10446 10451 10454 10457 10460 10464 10469 10473 10476 10480 10485 10490 10494 10499 10504 10508 10513 10518 10522 10526 10531 10534 10538 10542 10546 10550 10553 10557 10561 10565 10569 10571 10574 10576 10579 10582 10583 10583 10582 10583 10586 10587 10588 10589 10592 10594 10595 10597 10599 10601 10601 10601 10601 10600 10599 10598 10598 10598 10598 10598 10599 10598 10598 10597 10596 10595 10594 10594 10593 10592 10591 10590 10588 10587 10586 10584 10582 10580 10578 10576 10574
10423 10427 10431 10434 10437 10442 10447 10449 10451 10455 10459 10463 10467 10470 10474 10479 10483 10488 10493 10497 10502 10507 10512 10517 10521 10526 10530 10534 10537 10541 10545 10548 10552 10556 10560 10563 10566 10568 10571 10573 10575 10576 10576 10577 10579 10580 10580 10582 10583 10586 10587 10589 10592 10594 10595 10596 10596 10595 10594 10594 10593 10592 10591 10591 10591 10591 10591 10591 10590 10589 10589 10588 10587 10587 10586 10584 10583 10582 10581 10579 10577 10575 10573 10571 10569 10567
10419 10423 10427 10430 10433 10437 10441 10443 10445 10448 10453 10457 10461 10464 10468 10472 10477 10482 10486 10491 10496 10501 10507 10512 10517 10521 10525 10528 10532 10536 10539 10543 10547 10551 10555 10557 10560 10562 10564 10567 10569 10570 10571 10573 10574 10574 10575 10577 10579 10580 10582 10584 10587 10589 10589 10589 10589 10589 10588 10587 10586 10585 10584 10583 10583 10583 10584 10583 10583 10583 10582 10582 10581 10580 10579 10577 10576 10575 10574 10572 10570 10568 10566 10564 10562 10561
10415 10418 10421 10424 10426 10430 10434 10436 10439 10443 10447 10452 10455 10458 10462 10466 10470 10475 10480 10485 10491 10496 10502 10506 10510 10514 10518 10522 10527 10531 10534 10539 10544 10547 10549 10550 10552 10555 10558 10561 10563 10565 10566 10567 10567 10568 10570 10572 10574 10575 10577 10579 10582 10583 10583 10582 10583 10582 10581 10580 10580 10579 10578 10576 10575 10575 10575 10575 10576 10576 10575 10575 10574 10573 10571 10570 10570 10569 10567 10565 10563 10561 10559 10557 10556 10554
10410 10413 10414 10417 10421 10425 10428 10431 10434 10439 10442 10445 10448 10452 10456 10459 10463 10469 10474 10480 10486 10491 10496 10500 10504 10509 10513 10517 10521 10525 10531 10536 10538 10539 10541 10543 10546 10549 10552 10555 10558 10559 10560 10561 10562 10563 10565 10567 10568 10570 10573 10575 10577 10576 10576 10576 10576 10575 10574 10573 10572 10571 10571 10570 10568 10567 10567 10567 10569 10569 10569 10568 10567 10565 10564 10564 10563 10562 10560 10558 10556 10554 10553 10551 10550 10548
10405 10407 10410 10414 10418 10421 10424 10427 10430 10433 10436 10438 10442 10446 10450 10453 10458 10465 10470 10476 10482 10486 10490 10495 10499 10503 10507 10511 10515 10520 10525 10528 10529 10531 10535 10538 10541 10544 10547 10550 10552 10553 10554 10555 10557 10558 10560 10561 10563 10566 10569 10570 10570 10570 10570 10570 10568 10567 10566 10565 10564 10564 10563 10562 10561 10560 10560 10561 10562 10562 10562 10561 10559 10558 10558 10557 10556 10555 10553 10551 10550 10548 10547 10545 10543 10542
10400 10402 10405 10409 10412 10415 10418 10421 10425 10428 10430 10433 10437 10441 10445 10450 10457 10463 10467 10472 10477 10480 10484 10489 10493 10497 10502 10506 10510 10515 10518 10520 10522 10527 10531 10533 10536 10539 10541 10543 10545 10547 10548 10549 10551 10552 10554 10556 10559 10562 10563 10563 10563 10563 10563 10562 10560 10559 10558 10558 10558 10557 10557 10556 10555 10554 10554 10555 10555 10556 10555 10553 10553 10552 10552 10551 10550 10548 10547 10545 10544 10542 10541 10539 10537 10535
10396 10398 10400 10403 10406 10409 10412 10415 10419 10423 10426 10430 10435 10439 10444 10450 10455 10459 10461 10465 10470 10474 10478 10484 10488 10492 10497 10502 10506 10510 10512 10515 10518 10522 10526 10528 10530 10533 10536 10537 10539 10541 10542 10544 10545 10547 10549 10552 10555 10556 10555 10555 10555 10555 10555 10554 10552 10550 10551 10551 10551 10551 10551 10550 10549 10548 10549 10549 10550 10550 10548 10547 10547 10546 10545 10544 10543 10542 10541 10539 10538 10536 10535 10533 10531 10529
10391 10393 10396 10399 10401 10405 10408 10412 10417 10421 10423 10427 10431 10436 10440 10445 10448 10450 10454 10459 10464 10469 10474 10479 10483 10488 10493 10498 10501 10504 10507 10510 10513 10516 10520 10523 10525 10528 10530 10532 10533 10534 10536 10538 10539 10541 10545 10547 10548 10548 10547 10547 10548 10548 10547 10547 10545 10543 10544 10544 10544 10544 10544 10543 10541 10541 10543 10544 10544 10543 10542 10541 10541 10540 10539 10538 10537 10536 10534 10533 10532 10530 10528 10527 10525 10523
10387 10389 10392 10396 10399 10402 10406 10410 10413 10415 10416 10420 10425 10429 10433 10437 10441 10445 10450 10455 10460 10465 10470 10475 10480 10484 10489 10493 10496 10499 10502 10505 10508 10511 10514 10517 10520 10522 10524 10525 10526 10528 10529 10531 10533 10536 10539 10540 10540 10540 10539 10540 10540 10540 10540 10540 10539 10538 10538 10538 10537 10537 10537 10535 10535 10536 10537 10538 10537 10537 10536 10535 10534 10534 10533 10532 10531 10529 10528 10527 10525 10524 10522 10521 10519 10517
10383 10386 10389 10392 10396 10400 10403 10405 10406 10408 10411 10415 10420 10425 10429 10433 10438 10442 10447 10452 10457 10462 10466 10471 10476 10480 10484 10488 10492 10495 10498 10500 10502 10506 10509 10511 10514 10515 10516 10518 10519 10521 10522 10525 10527 10529 10532 10532 10532 10532 10532 10532 10533 10534 10534 10534 10534 10533 10532 10531 10531 10530 10530 10530 10530 10531 10532 10532 10531 10530 10529 10529 10528 10527 10526 10525 10524 10523 10522 10520 10519 10517 10516 10515 10513 10511
10380 10383 10387 10390 10393 10397 10399 10402 10404 10406 10409 10414 10418 10423 10428 10432 10436 10440 10445 10450 10454 10459 10463 10468 10472 10476 10480 10483 10487 10490 10492 10494 10497 10500 10503 10505 10506 10507 10509 10511 10512 10514 10516 10518 10520 10523 10524 10525 10524 10524 10525 10526 10527 10527 10528 10529 10528 10526 10525 10524 10524 10524 10524 10524 10525 10526 10526 10526 10525 10524 10523 10522 10522 10521 10520 10519 10518 10517 10515 10514 10513 10511 10510 10509 10507 10505
10379 10382 10385 10388 10391 10394 10397 10400 10403 10406 10410 10414 10418 10422 10427 10431 10435 10439 10443 10447 10451 10455 10459 10464 10468 10471 10475 10478 10482 10484 10487 10489 10492 10494 10496 10498 10499 10500 10502 10504 10506 10508 10510 10512 10514 10516 10517 10517 10517 10518 10519 10520 10521 10522 10523 10522 10520 10518 10518 10519 10519 10519 10519 10518 10518 10518 10519 10519 10518 10518 10517 10517 10516 10515 10514 10513 10512 10511 10509 10508 10507 10505 10504 10503 10501 10499
10377 10380 10383 10386 10389 10392 10395 10398 10402 10406 10411 10415 10418 10422 10426 10430 10434 10437 10440 10444 10448 10451 10455 10459 10463 10467 10470 10474 10477 10480 10482 10484 10486 10488 10489 10491 10493 10494 10496 10498 10500 10503 10504 10506 10507 10509 10510 10511 10511 10512 10513 10515 10516 10516 10516 10515 10513 10513 10514 10514 10514 10513 10513 10512 10511 10511 10511 10512 10511 10511 10511 10511 10510 10509 10508 10507 10506 10505 10504 10502 10501 10499 10498 10496 10495 10492
10375 10378 10381 10384 10387 10390 10394 10398 10402 10406 10410 10413 10417 10420 10424 10428 10431 10434 10437 10440 10444 10447 10451 10455 10459 10463 10466 10470 10473 10475 10477 10479 10481 10482 10484 10485 10487 10489 10491 10493 10495 10497 10498 10499 10500 10502 10504 10504 10505 10506 10508 10510 10510 10510 10510 10509 10509 10510 10509 10509 10508 10508 10507 10507 10506 10506 10506 10506 10505 10505 10505 10505 10504 10503 10502 10501 10500 10499 10498 10496 10495 10493 10492 10490 10488 10486
10374 10377 10379 10383 10386 10390 10394 10397 10401 10404 10407 10411 10414 10418 10421 10424 10427 10430 10433 10437 10440 10444 10448 10452 10455 10459 10463 10466 10468 10470 10472 10474 10475 10477 10478 10480 10482 10484 10486 10487 10489 10491 10492 10493 10494 10496 10497 10499 10499 10501 10502 10504 10505 10505 10504 10504 10504 10504 10504 10504 10504 10503 10503 10502 10502 10502 10501 10501 10500 10500 10500 10499 10498 10497 10496 10495 10494 10493 10492 10490 10489 10487 10486 10484 10482 10480
10373 10376 10379 10382 10385 10388 10391 10395 10398 10401 10404 10407 10410 10414 10417 10420 10423 10426 10430 10433 10437 10440 10444 10447 10451 10454 10458 10461 10463 10465 10467 10468 10469 10471 10472 10474 10477 10478 10480 10481 10483 10484 10486 10487 10488 10489 10491 10493 10494 10495 10497 10498 10499 10499 10499 10499 10499 10499 10499 10499 10498 10498 10498 10498 10497 10496 10496 10495 10495 10495 10494 10493 10492 10491 10491 10490 10489 10487 10486 10484 10483 10481 10480 10478 10476 10473